Time,TemperatureF,DewpointF,PressureIn,WindDirection,WindDirectionDegrees,WindSpeedMPH,WindSpeedGustMPH,Humidity,HourlyPrecipIn,Conditions,Clouds,dailyrainin,SoftwareType,DateUTC
2013-09-19 00:00:00,53.5,51.1,30.11,North,0,0.0,0.0,92,-99.99,,,-99.99,PWS SA v1.10,2013-09-19 04:00:00,
2013-09-19 00:02:00,53.4,51.3,30.11,North,0,0.0,0.0,92,-99.99,,,-99.99,PWS SA v1.10,2013-09-19 04:02:00,
2013-09-19 00:04:00,53.4,51.3,30.11,North,0,0.0,0.0,92,-99.99,,,-99.99,PWS SA v1.10,2013-09-19 04:04:00,
2013-09-19 00:06:00,53.2,51.1,30.10,North,0,0.0,0.0,93,-99.99,,,-99.99,PWS SA v1.10,2013-09-19 04:06:00,
2013-09-19 00:12:00,53.2,51.3,30.11,North,0,0.0,0.0,93,-99.99,,,-99.99,PWS SA v1.10,2013-09-19 04:12:00,
2013-09-19 00:18:00,53.0,51.3,30.11,North,0,0.0,0.0,94,-99.99,,,-99.99,PWS SA v1.10,2013-09-19 04:18:00,
2013-09-19 00:24:00,52.8,51.0,30.11,North,0,0.0,0.0,94,-99.99,,,-99.99,PWS SA v1.10,2013-09-19 04:24:00,
2013-09-19 00:30:00,52.6,51.0,30.10,North,0,0.0,0.0,94,-99.99,,,-99.99,PWS SA v1.10,2013-09-19 04:30:00,
2013-09-19 00:36:00,52.6,51.0,30.11,North,0,0.0,0.0,94,-99.99,,,-99.99,PWS SA v1.10,2013-09-19 04:36:00,
2013-09-19 00:40:00,52.8,51.0,30.10,North,0,0.0,0.0,94,-99.99,,,-99.99,PWS SA v1.10,2013-09-19 04:40:00,
2013-09-19 00:46:00,52.6,51.0,30.10,North,0,0.0,0.0,94,-99.99,,,-99.99,PWS SA v1.10,2013-09-19 04:46:00,
2013-09-19 00:52:00,52.5,50.6,30.11,North,0,0.0,0.0,93,-99.99,,,-99.99,PWS SA v1.10,2013-09-19 04:52:00,
2013-09-19 00:58:00,52.5,50.9,30.10,North,0,0.0,0.0,94,-99.99,,,-99.99,PWS SA v1.10,2013-09-19 04:58:00,
2013-09-19 01:04:00,52.4,51.0,30.10,North,0,0.0,0.0,95,-99.99,,,-99.99,PWS SA v1.10,2013-09-19 05:04:00,
2013-09-19 01:10:00,52.3,50.9,30.10,North,0,0.0,0.0,95,-99.99,,,-99.99,PWS SA v1.10,2013-09-19 05:10:00,
2013-09-19 01:16:00,52.2,50.8,30.10,North,0,0.0,0.0,95,-99.99,,,-99.99,PWS SA v1.10,2013-09-19 05:16:00,
2013-09-19 01:22:00,52.2,50.9,30.10,North,0,0.0,0.0,95,-99.99,,,-99.99,PWS SA v1.10,2013-09-19 05:22:00,
2013-09-19 01:28:00,52.2,50.9,30.10,North,0,0.0,0.0,95,-99.99,,,-99.99,PWS SA v1.10,2013-09-19 05:28:00,
2013-09-19 01:34:00,52.0,50.8,30.10,North,0,0.0,0.0,95,-99.99,,,-99.99,PWS SA v1.10,2013-09-19 05:34:00,
2013-09-19 01:40:00,51.8,50.5,30.10,North,0,0.0,0.0,96,-99.99,,,-99.99,PWS SA v1.10,2013-09-19 05:40:00,
2013-09-19 01:46:00,51.7,50.5,30.10,North,0,0.0,0.0,96,-99.99,,,-99.99,PWS SA v1.10,2013-09-19 05:46:00,
2013-09-19 01:52:00,51.6,50.7,30.09,North,0,0.0,0.0,96,-99.99,,,-99.99,PWS SA v1.10,2013-09-19 05:52:00,
2013-09-19 01:58:00,51.6,50.5,30.09,North,0,0.0,0.0,96,-99.99,,,-99.99,PWS SA v1.10,2013-09-19 05:58:00,
2013-09-19 02:04:00,51.6,50.5,30.09,North,0,0.0,0.0,95,-99.99,,,-99.99,PWS SA v1.10,2013-09-19 06:04:00,
2013-09-19 02:10:00,51.6,50.5,30.09,North,0,0.0,0.0,95,-99.99,,,-99.99,PWS SA v1.10,2013-09-19 06:10:00,
2013-09-19 02:16:00,51.5,50.5,30.09,North,0,0.0,0.0,96,-99.99,,,-99.99,PWS SA v1.10,2013-09-19 06:16:00,
2013-09-19 02:22:00,51.5,50.5,30.09,North,0,0.0,0.0,96,-99.99,,,-99.99,PWS SA v1.10,2013-09-19 06:22:00,
2013-09-19 02:28:00,51.1,50.3,30.08,North,0,0.0,0.0,96,-99.99,,,-99.99,PWS SA v1.10,2013-09-19 06:28:00,
2013-09-19 02:34:00,50.9,50.0,30.08,North,0,0.0,0.0,96,-99.99,,,-99.99,PWS SA v1.10,2013-09-19 06:34:00,
2013-09-19 02:40:00,50.9,49.9,30.08,North,0,0.0,0.0,96,-99.99,,,-99.99,PWS SA v1.10,2013-09-19 06:40:00,
2013-09-19 02:46:00,50.7,49.7,30.08,North,0,0.0,0.0,96,-99.99,,,-99.99,PWS SA v1.10,2013-09-19 06:46:00,
2013-09-19 02:52:00,50.5,49.8,30.08,North,0,0.0,0.0,95,-99.99,,,-99.99,PWS SA v1.10,2013-09-19 06:52:00,
2013-09-19 02:58:00,50.6,49.6,30.08,North,0,0.0,0.0,95,-99.99,,,-99.99,PWS SA v1.10,2013-09-19 06:58:00,
2013-09-19 03:04:00,50.6,49.6,30.08,North,0,0.0,0.0,95,-99.99,,,-99.99,PWS SA v1.10,2013-09-19 07:04:00,
2013-09-19 03:10:00,50.5,49.7,30.08,North,0,0.0,0.0,96,-99.99,,,-99.99,PWS SA v1.10,2013-09-19 07:10:00,
2013-09-19 03:16:00,50.4,49.6,30.08,North,0,0.0,0.0,97,-99.99,,,-99.99,PWS SA v1.10,2013-09-19 07:16:00,
2013-09-19 03:22:00,50.4,49.6,30.08,North,0,0.0,0.0,96,-99.99,,,-99.99,PWS SA v1.10,2013-09-19 07:22:00,
2013-09-19 03:28:00,50.5,49.7,30.08,North,0,0.0,0.0,96,-99.99,,,-99.99,PWS SA v1.10,2013-09-19 07:28:00,
2013-09-19 03:34:00,50.6,49.6,30.07,North,0,0.0,0.0,96,-99.99,,,-99.99,PWS SA v1.10,2013-09-19 07:34:00,
2013-09-19 03:40:00,50.6,49.4,30.08,North,0,0.0,0.0,96,-99.99,,,-99.99,PWS SA v1.10,2013-09-19 07:40:00,
2013-09-19 03:46:00,50.7,49.7,30.07,North,0,0.0,0.0,95,-99.99,,,-99.99,PWS SA v1.10,2013-09-19 07:46:00,
2013-09-19 03:52:00,50.6,49.5,30.08,North,0,0.0,0.0,95,-99.99,,,-99.99,PWS SA v1.10,2013-09-19 07:52:00,
2013-09-19 03:58:00,50.7,49.8,30.07,North,0,0.0,0.0,95,-99.99,,,-99.99,PWS SA v1.10,2013-09-19 07:58:00,
2013-09-19 04:04:00,50.7,49.5,30.07,North,0,0.0,0.0,95,-99.99,,,-99.99,PWS SA v1.10,2013-09-19 08:04:00,
2013-09-19 04:10:00,50.6,49.3,30.08,North,0,0.0,0.0,95,-99.99,,,-99.99,PWS SA v1.10,2013-09-19 08:10:00,
2013-09-19 04:16:00,50.5,49.3,30.08,North,0,0.0,0.0,95,-99.99,,,-99.99,PWS SA v1.10,2013-09-19 08:16:00,
2013-09-19 04:22:00,50.3,49.2,30.08,North,0,0.0,0.0,94,-99.99,,,-99.99,PWS SA v1.10,2013-09-19 08:22:00,
2013-09-19 04:28:00,50.2,48.8,30.07,North,0,0.0,0.0,94,-99.99,,,-99.99,PWS SA v1.10,2013-09-19 08:28:00,
2013-09-19 04:34:00,50.2,48.9,30.08,North,0,0.0,0.0,94,-99.99,,,-99.99,PWS SA v1.10,2013-09-19 08:34:00,
2013-09-19 04:40:00,50.0,49.1,30.08,North,0,0.0,0.0,95,-99.99,,,-99.99,PWS SA v1.10,2013-09-19 08:40:00,
2013-09-19 04:46:00,49.9,48.8,30.08,North,0,0.0,0.0,95,-99.99,,,-99.99,PWS SA v1.10,2013-09-19 08:46:00,
2013-09-19 04:52:00,49.8,48.6,30.08,North,0,0.0,0.0,95,-99.99,,,-99.99,PWS SA v1.10,2013-09-19 08:52:00,
2013-09-19 04:58:00,49.6,48.5,30.08,North,0,0.0,0.0,95,-99.99,,,-99.99,PWS SA v1.10,2013-09-19 08:58:00,
2013-09-19 05:04:00,49.3,48.0,30.07,North,0,0.0,0.0,95,-99.99,,,-99.99,PWS SA v1.10,2013-09-19 09:04:00,
2013-09-19 05:10:00,49.4,48.6,30.08,North,0,0.0,0.0,96,-99.99,,,-99.99,PWS SA v1.10,2013-09-19 09:10:00,
2013-09-19 05:16:00,49.4,48.6,30.07,North,0,0.0,0.0,96,-99.99,,,-99.99,PWS SA v1.10,2013-09-19 09:16:00,
2013-09-19 05:22:00,49.4,48.4,30.07,North,0,0.0,0.0,96,-99.99,,,-99.99,PWS SA v1.10,2013-09-19 09:22:00,
2013-09-19 05:28:00,49.4,48.5,30.08,North,0,0.0,0.0,96,-99.99,,,-99.99,PWS SA v1.10,2013-09-19 09:28:00,
2013-09-19 05:34:00,49.5,48.7,30.08,North,0,0.0,0.0,96,-99.99,,,-99.99,PWS SA v1.10,2013-09-19 09:34:00,
2013-09-19 05:40:00,49.4,48.5,30.08,North,0,0.0,0.0,96,-99.99,,,-99.99,PWS SA v1.10,2013-09-19 09:40:00,
2013-09-19 05:46:00,49.4,48.6,30.08,North,0,0.0,0.0,96,-99.99,,,-99.99,PWS SA v1.10,2013-09-19 09:46:00,
2013-09-19 05:52:00,49.2,48.3,30.08,North,0,0.0,0.0,95,-99.99,,,-99.99,PWS SA v1.10,2013-09-19 09:52:00,
2013-09-19 05:58:00,49.1,48.1,30.08,North,0,0.0,0.0,95,-99.99,,,-99.99,PWS SA v1.10,2013-09-19 09:58:00,
2013-09-19 06:04:00,49.2,48.1,30.09,North,0,0.0,0.0,96,-99.99,,,-99.99,PWS SA v1.10,2013-09-19 10:04:00,
2013-09-19 06:10:00,49.2,48.4,30.08,North,0,0.0,0.0,96,-99.99,,,-99.99,PWS SA v1.10,2013-09-19 10:10:00,
2013-09-19 06:16:00,49.1,48.1,30.09,North,0,0.0,0.0,96,-99.99,,,-99.99,PWS SA v1.10,2013-09-19 10:16:00,
2013-09-19 06:22:00,49.3,48.4,30.09,North,0,0.0,0.0,96,-99.99,,,-99.99,PWS SA v1.10,2013-09-19 10:22:00,
2013-09-19 06:28:00,49.5,48.5,30.09,North,0,0.0,0.0,96,-99.99,,,-99.99,PWS SA v1.10,2013-09-19 10:28:00,
2013-09-19 06:34:00,49.4,48.3,30.09,North,0,0.0,0.0,96,-99.99,,,-99.99,PWS SA v1.10,2013-09-19 10:34:00,
2013-09-19 06:40:00,49.4,48.6,30.09,North,0,0.0,0.0,96,-99.99,,,-99.99,PWS SA v1.10,2013-09-19 10:40:00,
2013-09-19 06:46:00,49.3,48.4,30.09,North,0,0.0,0.0,96,-99.99,,,-99.99,PWS SA v1.10,2013-09-19 10:46:00,
2013-09-19 06:52:00,49.1,48.1,30.09,North,0,0.0,0.0,97,-99.99,,,-99.99,PWS SA v1.10,2013-09-19 10:52:00,
2013-09-19 06:58:00,48.9,48.2,30.09,North,0,0.0,0.0,97,-99.99,,,-99.99,PWS SA v1.10,2013-09-19 10:58:00,
2013-09-19 07:04:00,48.9,48.3,30.09,North,0,0.0,0.0,98,-99.99,,,-99.99,PWS SA v1.10,2013-09-19 11:04:00,
2013-09-19 07:10:00,49.0,48.3,30.09,North,0,0.0,0.0,98,-99.99,,,-99.99,PWS SA v1.10,2013-09-19 11:10:00,
2013-09-19 07:16:00,49.0,48.4,30.09,North,0,0.0,0.0,97,-99.99,,,-99.99,PWS SA v1.10,2013-09-19 11:16:00,
2013-09-19 07:22:00,49.0,48.4,30.09,North,0,0.0,0.0,98,-99.99,,,-99.99,PWS SA v1.10,2013-09-19 11:22:00,
2013-09-19 07:28:00,49.4,48.8,30.09,North,0,0.0,0.0,98,-99.99,,,-99.99,PWS SA v1.10,2013-09-19 11:28:00,
2013-09-19 07:34:00,49.6,49.0,30.09,North,0,0.0,0.0,98,-99.99,,,-99.99,PWS SA v1.10,2013-09-19 11:34:00,
2013-09-19 07:40:00,49.8,49.3,30.09,North,0,0.0,0.0,98,-99.99,,,-99.99,PWS SA v1.10,2013-09-19 11:40:00,
2013-09-19 07:46:00,50.0,49.2,30.09,North,0,0.0,0.0,98,-99.99,,,-99.99,PWS SA v1.10,2013-09-19 11:46:00,
2013-09-19 07:52:00,50.3,49.7,30.09,North,0,0.0,0.0,98,-99.99,,,-99.99,PWS SA v1.10,2013-09-19 11:52:00,
2013-09-19 07:58:00,50.6,49.9,30.09,North,0,0.0,0.0,98,-99.99,,,-99.99,PWS SA v1.10,2013-09-19 11:58:00,
2013-09-19 08:04:00,50.9,50.3,30.10,North,0,0.0,0.0,98,-99.99,,,-99.99,PWS SA v1.10,2013-09-19 12:04:00,
2013-09-19 08:10:00,51.2,50.6,30.10,North,0,0.0,0.0,98,-99.99,,,-99.99,PWS SA v1.10,2013-09-19 12:10:00,
2013-09-19 08:16:00,51.6,51.0,30.09,North,0,0.0,0.0,98,-99.99,,,-99.99,PWS SA v1.10,2013-09-19 12:16:00,
2013-09-19 08:22:00,52.0,51.0,30.09,North,0,0.0,0.0,98,-99.99,,,-99.99,PWS SA v1.10,2013-09-19 12:22:00,
2013-09-19 08:28:00,52.4,51.1,30.09,North,0,0.0,0.0,96,-99.99,,,-99.99,PWS SA v1.10,2013-09-19 12:28:00,
2013-09-19 08:34:00,52.9,51.1,30.09,North,0,0.0,0.0,95,-99.99,,,-99.99,PWS SA v1.10,2013-09-19 12:34:00,
2013-09-19 08:40:00,53.3,51.5,30.09,North,0,0.0,0.0,95,-99.99,,,-99.99,PWS SA v1.10,2013-09-19 12:40:00,
2013-09-19 08:46:00,54.1,52.1,30.09,North,0,0.0,0.0,94,-99.99,,,-99.99,PWS SA v1.10,2013-09-19 12:46:00,
2013-09-19 08:52:00,54.5,52.5,30.09,North,0,0.0,0.0,94,-99.99,,,-99.99,PWS SA v1.10,2013-09-19 12:52:00,
2013-09-19 08:58:00,55.1,52.7,30.09,North,0,0.0,0.0,93,-99.99,,,-99.99,PWS SA v1.10,2013-09-19 12:58:00,
2013-09-19 09:04:00,55.6,53.3,30.09,North,0,0.0,0.0,93,-99.99,,,-99.99,PWS SA v1.10,2013-09-19 13:04:00,
2013-09-19 09:10:00,56.2,53.5,30.09,North,0,0.0,0.0,92,-99.99,,,-99.99,PWS SA v1.10,2013-09-19 13:10:00,
2013-09-19 09:16:00,57.0,53.9,30.09,North,0,0.0,0.0,90,-99.99,,,-99.99,PWS SA v1.10,2013-09-19 13:16:00,
2013-09-19 09:22:00,57.7,54.0,30.09,North,0,0.0,0.0,89,-99.99,,,-99.99,PWS SA v1.10,2013-09-19 13:22:00,
2013-09-19 09:28:00,58.2,54.7,30.09,North,0,0.0,0.0,89,-99.99,,,-99.99,PWS SA v1.10,2013-09-19 13:28:00,
2013-09-19 09:34:00,58.7,54.2,30.09,North,0,0.0,0.0,86,-99.99,,,-99.99,PWS SA v1.10,2013-09-19 13:34:00,
2013-09-19 09:40:00,59.7,54.0,30.09,North,0,0.0,0.0,83,-99.99,,,-99.99,PWS SA v1.10,2013-09-19 13:40:00,
2013-09-19 09:46:00,60.4,54.5,30.09,North,0,0.0,0.0,82,-99.99,,,-99.99,PWS SA v1.10,2013-09-19 13:46:00,
2013-09-19 09:52:00,61.0,55.1,30.09,North,0,0.0,0.0,82,-99.99,,,-99.99,PWS SA v1.10,2013-09-19 13:52:00,
2013-09-19 09:58:00,61.3,55.4,30.09,North,0,0.0,0.0,82,-99.99,,,-99.99,PWS SA v1.10,2013-09-19 13:58:00,
2013-09-19 10:04:00,61.9,55.4,30.09,North,0,0.0,0.0,80,-99.99,,,-99.99,PWS SA v1.10,2013-09-19 14:04:00,
2013-09-19 10:10:00,62.5,55.1,30.09,North,0,0.0,0.0,78,-99.99,,,-99.99,PWS SA v1.10,2013-09-19 14:10:00,
2013-09-19 10:16:00,63.0,55.9,30.08,North,0,0.0,0.0,78,-99.99,,,-99.99,PWS SA v1.10,2013-09-19 14:16:00,
2013-09-19 10:22:00,63.5,55.0,30.08,North,0,0.0,0.0,75,-99.99,,,-99.99,PWS SA v1.10,2013-09-19 14:22:00,
2013-09-19 10:28:00,64.1,54.7,30.09,North,0,0.0,0.0,72,-99.99,,,-99.99,PWS SA v1.10,2013-09-19 14:28:00,
2013-09-19 10:34:00,64.6,54.0,30.08,North,0,0.0,0.0,68,-99.99,,,-99.99,PWS SA v1.10,2013-09-19 14:34:00,
2013-09-19 10:40:00,65.1,53.7,30.08,North,0,0.0,0.0,67,-99.99,,,-99.99,PWS SA v1.10,2013-09-19 14:40:00,
2013-09-19 10:46:00,65.8,53.8,30.08,North,0,0.0,0.0,66,-99.99,,,-99.99,PWS SA v1.10,2013-09-19 14:46:00,
2013-09-19 10:52:00,66.3,54.9,30.08,North,0,0.0,0.0,67,-99.99,,,-99.99,PWS SA v1.10,2013-09-19 14:52:00,
2013-09-19 10:58:00,66.4,55.2,30.08,North,0,0.0,0.0,67,-99.99,,,-99.99,PWS SA v1.10,2013-09-19 14:58:00,
2013-09-19 11:04:00,66.9,54.8,30.08,North,0,0.0,0.0,66,-99.99,,,-99.99,PWS SA v1.10,2013-09-19 15:04:00,
2013-09-19 11:10:00,67.2,55.2,30.08,North,0,0.0,1.0,66,-99.99,,,-99.99,PWS SA v1.10,2013-09-19 15:10:00,
2013-09-19 11:16:00,67.8,54.5,30.08,North,0,0.0,1.0,64,-99.99,,,-99.99,PWS SA v1.10,2013-09-19 15:16:00,
2013-09-19 11:22:00,68.1,54.9,30.08,North,0,0.0,1.0,63,-99.99,,,-99.99,PWS SA v1.10,2013-09-19 15:22:00,
2013-09-19 11:28:00,68.7,55.3,30.08,North,0,0.0,0.0,63,-99.99,,,-99.99,PWS SA v1.10,2013-09-19 15:28:00,
2013-09-19 11:34:00,68.9,54.9,30.07,North,0,0.0,0.0,62,-99.99,,,-99.99,PWS SA v1.10,2013-09-19 15:34:00,
2013-09-19 11:40:00,69.1,56.0,30.07,North,0,0.0,0.0,64,-99.99,,,-99.99,PWS SA v1.10,2013-09-19 15:40:00,
2013-09-19 11:46:00,69.7,55.9,30.07,North,0,0.0,0.0,63,-99.99,,,-99.99,PWS SA v1.10,2013-09-19 15:46:00,
2013-09-19 11:52:00,70.1,54.9,30.07,North,0,0.0,0.0,59,-99.99,,,-99.99,PWS SA v1.10,2013-09-19 15:52:00,
2013-09-19 11:58:00,70.8,55.4,30.06,North,0,0.0,0.0,59,-99.99,,,-99.99,PWS SA v1.10,2013-09-19 15:58:00,
2013-09-19 12:04:00,71.7,54.2,30.06,North,0,0.0,3.0,55,-99.99,,,-99.99,PWS SA v1.10,2013-09-19 16:04:00,
2013-09-19 12:10:00,71.3,55.2,30.06,North,0,0.0,3.0,58,-99.99,,,-99.99,PWS SA v1.10,2013-09-19 16:10:00,
2013-09-19 12:16:00,71.7,54.3,30.06,North,0,0.0,0.0,55,-99.99,,,-99.99,PWS SA v1.10,2013-09-19 16:16:00,
2013-09-19 12:22:00,71.9,54.5,30.06,North,0,0.0,0.0,55,-99.99,,,-99.99,PWS SA v1.10,2013-09-19 16:22:00,
2013-09-19 12:28:00,72.4,55.1,30.06,North,0,0.0,0.0,56,-99.99,,,-99.99,PWS SA v1.10,2013-09-19 16:28:00,
2013-09-19 12:34:00,72.6,55.4,30.06,North,0,0.0,0.0,56,-99.99,,,-99.99,PWS SA v1.10,2013-09-19 16:34:00,
2013-09-19 12:40:00,73.5,55.9,30.06,North,0,0.0,0.0,55,-99.99,,,-99.99,PWS SA v1.10,2013-09-19 16:40:00,
2013-09-19 12:46:00,74.1,56.1,30.06,North,0,0.0,0.0,54,-99.99,,,-99.99,PWS SA v1.10,2013-09-19 16:46:00,
2013-09-19 12:52:00,74.4,57.0,30.06,North,0,0.0,0.0,55,-99.99,,,-99.99,PWS SA v1.10,2013-09-19 16:52:00,
2013-09-19 12:58:00,74.5,56.6,30.06,North,0,0.0,0.0,54,-99.99,,,-99.99,PWS SA v1.10,2013-09-19 16:58:00,
2013-09-19 13:04:00,74.6,54.8,30.05,North,0,0.0,0.0,51,-99.99,,,-99.99,PWS SA v1.10,2013-09-19 17:04:00,
2013-09-19 13:10:00,74.3,54.8,30.05,North,0,0.0,1.0,51,-99.99,,,-99.99,PWS SA v1.10,2013-09-19 17:10:00,
2013-09-19 13:16:00,74.1,53.8,30.05,North,0,0.0,1.0,50,-99.99,,,-99.99,PWS SA v1.10,2013-09-19 17:16:00,
2013-09-19 13:22:00,74.9,53.9,30.05,North,0,0.0,1.0,49,-99.99,,,-99.99,PWS SA v1.10,2013-09-19 17:22:00,
2013-09-19 13:28:00,74.8,54.5,30.05,North,0,0.0,3.0,50,-99.99,,,-99.99,PWS SA v1.10,2013-09-19 17:28:00,
2013-09-19 13:34:00,74.3,54.4,30.05,North,0,0.0,3.0,50,-99.99,,,-99.99,PWS SA v1.10,2013-09-19 17:34:00,
2013-09-19 13:40:00,74.9,54.4,30.04,SSE,160,5.1,5.1,50,-99.99,,,-99.99,PWS SA v1.10,2013-09-19 17:40:00,
2013-09-19 13:46:00,75.0,53.2,30.04,North,0,0.0,5.0,47,-99.99,,,-99.99,PWS SA v1.10,2013-09-19 17:46:00,
2013-09-19 13:52:00,74.9,54.7,30.04,North,0,0.0,5.0,50,-99.99,,,-99.99,PWS SA v1.10,2013-09-19 17:52:00,
2013-09-19 13:58:00,75.0,54.1,30.04,North,0,0.0,3.0,49,-99.99,,,-99.99,PWS SA v1.10,2013-09-19 17:58:00,
2013-09-19 14:04:00,75.4,52.2,30.03,North,0,0.0,0.0,45,-99.99,,,-99.99,PWS SA v1.10,2013-09-19 18:04:00,
2013-09-19 14:10:00,75.8,53.2,30.04,North,0,0.0,1.0,46,-99.99,,,-99.99,PWS SA v1.10,2013-09-19 18:10:00,
2013-09-19 14:16:00,75.9,53.5,30.03,North,0,0.0,3.0,47,-99.99,,,-99.99,PWS SA v1.10,2013-09-19 18:16:00,
2013-09-19 14:22:00,76.0,54.3,30.03,North,0,0.0,3.0,48,-99.99,,,-99.99,PWS SA v1.10,2013-09-19 18:22:00,
2013-09-19 14:28:00,76.7,55.4,30.03,North,0,0.0,0.0,49,-99.99,,,-99.99,PWS SA v1.10,2013-09-19 18:28:00,
2013-09-19 14:34:00,76.8,56.3,30.02,SSE,163,1.7,1.7,50,-99.99,,,-99.99,PWS SA v1.10,2013-09-19 18:34:00,
2013-09-19 14:40:00,76.5,55.5,30.02,North,0,0.0,3.0,49,-99.99,,,-99.99,PWS SA v1.10,2013-09-19 18:40:00,
2013-09-19 14:46:00,76.6,54.7,30.02,North,0,0.0,3.0,47,-99.99,,,-99.99,PWS SA v1.10,2013-09-19 18:46:00,
2013-09-19 14:52:00,76.8,54.5,30.02,North,0,0.0,3.0,47,-99.99,,,-99.99,PWS SA v1.10,2013-09-19 18:52:00,
2013-09-19 14:58:00,76.8,55.1,30.02,North,0,0.0,1.0,48,-99.99,,,-99.99,PWS SA v1.10,2013-09-19 18:58:00,
2013-09-19 15:04:00,77.1,57.5,30.02,North,0,0.0,1.0,52,-99.99,,,-99.99,PWS SA v1.10,2013-09-19 19:04:00,
2013-09-19 15:10:00,77.5,57.4,30.01,North,0,0.0,0.0,51,-99.99,,,-99.99,PWS SA v1.10,2013-09-19 19:10:00,
2013-09-19 15:16:00,77.8,58.3,30.01,North,0,0.0,3.0,52,-99.99,,,-99.99,PWS SA v1.10,2013-09-19 19:16:00,
2013-09-19 15:22:00,79.4,59.3,30.01,North,0,0.0,3.0,52,-99.99,,,-99.99,PWS SA v1.10,2013-09-19 19:22:00,
2013-09-19 15:28:00,79.5,57.9,30.01,North,0,0.0,0.0,48,-99.99,,,-99.99,PWS SA v1.10,2013-09-19 19:28:00,
2013-09-19 15:34:00,80.5,58.8,30.01,North,0,0.0,1.0,49,-99.99,,,-99.99,PWS SA v1.10,2013-09-19 19:34:00,
2013-09-19 15:40:00,81.1,56.5,30.01,North,0,0.0,1.0,44,-99.99,,,-99.99,PWS SA v1.10,2013-09-19 19:40:00,
2013-09-19 15:46:00,81.1,57.4,30.00,North,0,0.0,1.0,46,-99.99,,,-99.99,PWS SA v1.10,2013-09-19 19:46:00,
2013-09-19 15:52:00,80.4,54.8,30.00,North,0,0.0,3.0,42,-99.99,,,-99.99,PWS SA v1.10,2013-09-19 19:52:00,
2013-09-19 15:58:00,80.9,56.2,30.00,North,0,0.0,3.0,44,-99.99,,,-99.99,PWS SA v1.10,2013-09-19 19:58:00,
2013-09-19 16:04:00,80.1,52.9,30.00,North,0,0.0,3.0,40,-99.99,,,-99.99,PWS SA v1.10,2013-09-19 20:04:00,
2013-09-19 16:10:00,79.0,55.4,30.00,North,0,0.0,1.0,45,-99.99,,,-99.99,PWS SA v1.10,2013-09-19 20:10:00,
2013-09-19 16:16:00,78.1,55.3,29.99,North,0,0.0,1.0,46,-99.99,,,-99.99,PWS SA v1.10,2013-09-19 20:16:00,
2013-09-19 16:22:00,77.0,58.1,29.99,North,0,0.0,0.0,53,-99.99,,,-99.99,PWS SA v1.10,2013-09-19 20:22:00,
2013-09-19 16:28:00,76.2,57.5,29.99,North,0,0.0,0.0,53,-99.99,,,-99.99,PWS SA v1.10,2013-09-19 20:28:00,
2013-09-19 16:34:00,75.5,58.6,29.99,North,0,0.0,0.0,57,-99.99,,,-99.99,PWS SA v1.10,2013-09-19 20:34:00,
2013-09-19 16:40:00,75.0,57.9,30.00,North,0,0.0,3.0,56,-99.99,,,-99.99,PWS SA v1.10,2013-09-19 20:40:00,
2013-09-19 16:46:00,75.0,58.0,29.99,North,0,0.0,3.0,56,-99.99,,,-99.99,PWS SA v1.10,2013-09-19 20:46:00,
2013-09-19 16:52:00,75.2,56.9,29.99,North,0,0.0,0.0,54,-99.99,,,-99.99,PWS SA v1.10,2013-09-19 20:52:00,
2013-09-19 16:58:00,74.9,57.8,30.00,North,0,0.0,0.0,57,-99.99,,,-99.99,PWS SA v1.10,2013-09-19 20:58:00,
2013-09-19 17:04:00,74.5,58.8,30.00,North,0,0.0,0.0,59,-99.99,,,-99.99,PWS SA v1.10,2013-09-19 21:04:00,
2013-09-19 17:10:00,73.7,59.8,29.99,North,0,0.0,0.0,62,-99.99,,,-99.99,PWS SA v1.10,2013-09-19 21:10:00,
2013-09-19 17:16:00,73.3,58.9,30.00,North,0,0.0,0.0,62,-99.99,,,-99.99,PWS SA v1.10,2013-09-19 21:16:00,
2013-09-19 17:22:00,73.7,59.9,30.00,North,0,0.0,0.0,62,-99.99,,,-99.99,PWS SA v1.10,2013-09-19 21:22:00,
2013-09-19 17:28:00,72.9,58.6,29.99,North,0,0.0,0.0,62,-99.99,,,-99.99,PWS SA v1.10,2013-09-19 21:28:00,
2013-09-19 17:34:00,72.0,59.7,29.99,North,0,0.0,0.0,66,-99.99,,,-99.99,PWS SA v1.10,2013-09-19 21:34:00,
2013-09-19 17:40:00,71.1,59.7,29.99,North,0,0.0,0.0,68,-99.99,,,-99.99,PWS SA v1.10,2013-09-19 21:40:00,
2013-09-19 17:46:00,70.6,59.5,29.99,North,0,0.0,0.0,69,-99.99,,,-99.99,PWS SA v1.10,2013-09-19 21:46:00,
2013-09-19 17:52:00,70.2,59.0,29.99,North,0,0.0,0.0,69,-99.99,,,-99.99,PWS SA v1.10,2013-09-19 21:52:00,
2013-09-19 17:58:00,69.9,59.7,29.99,North,0,0.0,0.0,71,-99.99,,,-99.99,PWS SA v1.10,2013-09-19 21:58:00,
2013-09-19 18:04:00,69.5,59.7,29.99,North,0,0.0,0.0,72,-99.99,,,-99.99,PWS SA v1.10,2013-09-19 22:04:00,
2013-09-19 18:10:00,69.1,59.8,29.99,North,0,0.0,0.0,73,-99.99,,,-99.99,PWS SA v1.10,2013-09-19 22:10:00,
2013-09-19 18:16:00,68.6,59.5,29.99,North,0,0.0,0.0,74,-99.99,,,-99.99,PWS SA v1.10,2013-09-19 22:16:00,
2013-09-19 18:22:00,68.3,59.7,29.99,North,0,0.0,0.0,75,-99.99,,,-99.99,PWS SA v1.10,2013-09-19 22:22:00,
2013-09-19 18:28:00,67.8,59.7,30.00,North,0,0.0,0.0,77,-99.99,,,-99.99,PWS SA v1.10,2013-09-19 22:28:00,
2013-09-19 18:34:00,67.4,59.4,29.99,North,0,0.0,0.0,76,-99.99,,,-99.99,PWS SA v1.10,2013-09-19 22:34:00,
2013-09-19 18:40:00,67.1,59.5,30.00,North,0,0.0,0.0,77,-99.99,,,-99.99,PWS SA v1.10,2013-09-19 22:40:00,
2013-09-19 18:46:00,66.8,59.3,29.99,North,0,0.0,0.0,77,-99.99,,,-99.99,PWS SA v1.10,2013-09-19 22:46:00,
2013-09-19 18:52:00,66.5,59.2,30.00,North,0,0.0,0.0,78,-99.99,,,-99.99,PWS SA v1.10,2013-09-19 22:52:00,
2013-09-19 18:58:00,66.2,59.0,29.99,North,0,0.0,0.0,78,-99.99,,,-99.99,PWS SA v1.10,2013-09-19 22:58:00,
2013-09-19 19:04:00,66.2,59.2,30.00,North,0,0.0,0.0,79,-99.99,,,-99.99,PWS SA v1.10,2013-09-19 23:04:00,
2013-09-19 19:10:00,65.8,58.9,30.00,North,0,0.0,0.0,79,-99.99,,,-99.99,PWS SA v1.10,2013-09-19 23:10:00,
2013-09-19 19:16:00,65.8,58.9,29.99,North,0,0.0,0.0,79,-99.99,,,-99.99,PWS SA v1.10,2013-09-19 23:16:00,
2013-09-19 19:22:00,65.3,58.7,30.00,North,0,0.0,0.0,80,-99.99,,,-99.99,PWS SA v1.10,2013-09-19 23:22:00,
2013-09-19 19:28:00,65.0,58.5,30.00,North,0,0.0,0.0,80,-99.99,,,-99.99,PWS SA v1.10,2013-09-19 23:28:00,
2013-09-19 19:34:00,64.7,58.2,30.01,North,0,0.0,0.0,80,-99.99,,,-99.99,PWS SA v1.10,2013-09-19 23:34:00,
2013-09-19 19:40:00,64.4,58.5,30.01,North,0,0.0,0.0,81,-99.99,,,-99.99,PWS SA v1.10,2013-09-19 23:40:00,
2013-09-19 19:46:00,64.1,58.2,30.01,North,0,0.0,0.0,82,-99.99,,,-99.99,PWS SA v1.10,2013-09-19 23:46:00,
2013-09-19 19:52:00,64.0,58.4,30.01,North,0,0.0,0.0,82,-99.99,,,-99.99,PWS SA v1.10,2013-09-19 23:52:00,
2013-09-19 19:58:00,63.7,58.2,30.01,North,0,0.0,0.0,82,-99.99,,,-99.99,PWS SA v1.10,2013-09-19 23:58:00,
2013-09-19 20:04:00,63.6,58.4,30.01,North,0,0.0,0.0,83,-99.99,,,-99.99,PWS SA v1.10,2013-09-20 00:04:00,
2013-09-19 20:10:00,63.5,58.2,30.01,North,0,0.0,0.0,84,-99.99,,,-99.99,PWS SA v1.10,2013-09-20 00:10:00,
2013-09-19 20:16:00,63.3,58.0,30.01,North,0,0.0,0.0,83,-99.99,,,-99.99,PWS SA v1.10,2013-09-20 00:16:00,
2013-09-19 20:22:00,63.1,58.0,30.02,North,0,0.0,0.0,83,-99.99,,,-99.99,PWS SA v1.10,2013-09-20 00:22:00,
2013-09-19 20:28:00,62.9,58.1,30.02,North,0,0.0,0.0,84,-99.99,,,-99.99,PWS SA v1.10,2013-09-20 00:28:00,
2013-09-19 20:34:00,62.7,58.1,30.02,North,0,0.0,0.0,85,-99.99,,,-99.99,PWS SA v1.10,2013-09-20 00:34:00,
2013-09-19 20:40:00,62.5,57.7,30.01,North,0,0.0,0.0,85,-99.99,,,-99.99,PWS SA v1.10,2013-09-20 00:40:00,
2013-09-19 20:46:00,62.3,57.8,30.01,North,0,0.0,0.0,85,-99.99,,,-99.99,PWS SA v1.10,2013-09-20 00:46:00,
2013-09-19 20:52:00,62.2,58.0,30.02,North,0,0.0,0.0,86,-99.99,,,-99.99,PWS SA v1.10,2013-09-20 00:52:00,
2013-09-19 20:58:00,62.2,58.0,30.02,North,0,0.0,0.0,86,-99.99,,,-99.99,PWS SA v1.10,2013-09-20 00:58:00,
2013-09-19 21:04:00,61.8,57.4,30.02,North,0,0.0,0.0,86,-99.99,,,-99.99,PWS SA v1.10,2013-09-20 01:04:00,
2013-09-19 21:10:00,61.6,57.7,30.02,North,0,0.0,0.0,87,-99.99,,,-99.99,PWS SA v1.10,2013-09-20 01:10:00,
2013-09-19 21:16:00,61.5,57.5,30.02,North,0,0.0,0.0,88,-99.99,,,-99.99,PWS SA v1.10,2013-09-20 01:16:00,
2013-09-19 21:22:00,61.4,57.8,30.02,North,0,0.0,0.0,88,-99.99,,,-99.99,PWS SA v1.10,2013-09-20 01:22:00,
2013-09-19 21:28:00,61.2,57.6,30.02,North,0,0.0,0.0,88,-99.99,,,-99.99,PWS SA v1.10,2013-09-20 01:28:00,
2013-09-19 21:34:00,60.9,57.3,30.03,North,0,0.0,0.0,88,-99.99,,,-99.99,PWS SA v1.10,2013-09-20 01:34:00,
2013-09-19 21:40:00,60.6,57.1,30.02,North,0,0.0,0.0,88,-99.99,,,-99.99,PWS SA v1.10,2013-09-20 01:40:00,
2013-09-19 21:46:00,60.6,57.1,30.02,North,0,0.0,0.0,88,-99.99,,,-99.99,PWS SA v1.10,2013-09-20 01:46:00,
2013-09-19 21:52:00,60.2,57.0,30.03,North,0,0.0,0.0,89,-99.99,,,-99.99,PWS SA v1.10,2013-09-20 01:52:00,
2013-09-19 21:58:00,59.9,57.1,30.03,North,0,0.0,0.0,90,-99.99,,,-99.99,PWS SA v1.10,2013-09-20 01:58:00,
2013-09-19 22:04:00,59.8,56.8,30.03,North,0,0.0,0.0,90,-99.99,,,-99.99,PWS SA v1.10,2013-09-20 02:04:00,
2013-09-19 22:10:00,59.7,57.0,30.03,North,0,0.0,0.0,91,-99.99,,,-99.99,PWS SA v1.10,2013-09-20 02:10:00,
2013-09-19 22:16:00,59.6,56.5,30.03,North,0,0.0,0.0,90,-99.99,,,-99.99,PWS SA v1.10,2013-09-20 02:16:00,
2013-09-19 22:22:00,59.3,56.3,30.03,North,0,0.0,0.0,90,-99.99,,,-99.99,PWS SA v1.10,2013-09-20 02:22:00,
2013-09-19 22:28:00,59.1,56.5,30.03,North,0,0.0,0.0,91,-99.99,,,-99.99,PWS SA v1.10,2013-09-20 02:28:00,
2013-09-19 22:34:00,58.9,56.3,30.03,North,0,0.0,0.0,91,-99.99,,,-99.99,PWS SA v1.10,2013-09-20 02:34:00,
2013-09-19 22:40:00,58.7,56.0,30.03,North,0,0.0,0.0,91,-99.99,,,-99.99,PWS SA v1.10,2013-09-20 02:40:00,
2013-09-19 22:46:00,58.4,56.1,30.02,North,0,0.0,0.0,92,-99.99,,,-99.99,PWS SA v1.10,2013-09-20 02:46:00,
2013-09-19 22:52:00,58.3,56.0,30.02,North,0,0.0,0.0,92,-99.99,,,-99.99,PWS SA v1.10,2013-09-20 02:52:00,
2013-09-19 22:58:00,58.1,55.9,30.02,North,0,0.0,0.0,93,-99.99,,,-99.99,PWS SA v1.10,2013-09-20 02:58:00,
2013-09-19 23:04:00,58.0,55.7,30.02,North,0,0.0,0.0,93,-99.99,,,-99.99,PWS SA v1.10,2013-09-20 03:04:00,
2013-09-19 23:10:00,57.9,55.9,30.02,North,0,0.0,0.0,93,-99.99,,,-99.99,PWS SA v1.10,2013-09-20 03:10:00,
2013-09-19 23:16:00,57.7,55.6,30.02,North,0,0.0,0.0,93,-99.99,,,-99.99,PWS SA v1.10,2013-09-20 03:16:00,
2013-09-19 23:22:00,57.5,55.7,30.02,North,0,0.0,0.0,94,-99.99,,,-99.99,PWS SA v1.10,2013-09-20 03:22:00,
2013-09-19 23:28:00,57.4,55.5,30.02,North,0,0.0,0.0,94,-99.99,,,-99.99,PWS SA v1.10,2013-09-20 03:28:00,
2013-09-19 23:34:00,57.2,55.3,30.02,North,0,0.0,0.0,94,-99.99,,,-99.99,PWS SA v1.10,2013-09-20 03:34:00,
2013-09-19 23:40:00,57.1,55.2,30.02,North,0,0.0,0.0,94,-99.99,,,-99.99,PWS SA v1.10,2013-09-20 03:40:00,
2013-09-19 23:46:00,56.7,55.1,30.02,North,0,0.0,0.0,94,-99.99,,,-99.99,PWS SA v1.10,2013-09-20 03:46:00,
2013-09-19 23:52:00,56.5,54.9,30.02,North,0,0.0,0.0,95,-99.99,,,-99.99,PWS SA v1.10,2013-09-20 03:52:00,
2013-09-19 23:58:00,56.4,55.0,30.02,North,0,0.0,0.0,95,-99.99,,,-99.99,PWS SA v1.10,2013-09-20 03:58:00,